Regional Weather Roundup
Issued by NWS Northern Indiana

Home | Current Version | Previous Version | Text Only | Print | Product List | Glossary Off
Versions: 1 2 3 4 5 6 7 8 9 10 11 12 13 14 15 16 17 18 19 20 21 22 23 24 25 26 27 28 29 30 31 32 33 34 35 36 37 38 39 40 41 42 43 44 45 46 47 48 49 50

000
ASUS43 KIWX 282100
RWRIWX

KIWX WEATHER ROUNDUP
NATIONAL WEATHER SERVICE NORTHERN INDIANA
500 PM EDT FRI APR 28 2017

NOTE: "FAIR" INDICATES FEW OR NO CLOUDS BELOW 12,000 FEET WITH NO
SIGNIFICANT WEATHER AND/OR OBSTRUCTIONS TO VISIBILITY.

* THESE STATIONS ARE NOT UNDER NWS QUALITY CONTROL. THEY ALSO MAY NOT
  REPORT WEATHER SUCH AS PRECIPITATION OR FOG.

INZ001>027-282200-
NORTHERN INDIANA

CITY           SKY/WX    TMP DP  RH WIND       PRES   REMARKS
GARY*          PTSUNNY   61  45  55 E7        29.87F
SOUTH BEND     CLOUDY    60  45  57 SE13      29.90F
ELKHART*       CLOUDY    61  43  51 S12       29.91F
GOSHEN         CLOUDY    60  44  55 SE10      29.89F
MONTICELLO*    RAIN      54  52  93 SE5       29.91R
ANGOLA*        SUNNY     59  48  67 S10       29.93F
FORT WAYNE     LGT RAIN  55  51  86 E9        29.92F

$$
INZ028>050-282200-
CENTRAL INDIANA

CITY           SKY/WX    TMP DP  RH WIND       PRES   REMARKS
LAFAYETTE      CLOUDY    54  52  93 SE5       29.90R
KOKOMO*        CLOUDY    56  52  86 SE10      29.92F
MUNCIE*        CLOUDY    61  50  67 SE12      29.92F
INDIANAPOLIS   CLOUDY    62  50  64 E10       29.86F

$$
MIZ043>046-050>051-056>058-064>065-071>073-077>080-282200-
SOUTHWEST LOWER MICHIGAN

CITY           SKY/WX    TMP DP  RH WIND       PRES   REMARKS
BATTLE CREEK   CLOUDY    59  44  57 S5        29.91F
BENTON HARBOR  CLOUDY    60  43  53 SE9       29.90F
COLDWATER*     CLOUDY    60  42  52 S9G21     29.94S
HILLSDALE*     CLOUDY    57  41  54 S18       29.97R
HOLLAND        CLOUDY    56  45  66 CALM      29.90F
GRAND RAPIDS   CLOUDY    60  45  57 S5        29.91F
KALAMAZOO      CLOUDY    60  41  49 S7        29.93F
STURGIS*       CLOUDY    60  43  53 S15       29.91F
THREE RIVERS*  FAIR      59  43  53 S8        29.92F

$$
OHZ001>008-015>018-024>025-282200-
NORTHWEST OHIO

CITY           SKY/WX    TMP DP  RH WIND       PRES   REMARKS
DEFIANCE       LGT RAIN  55  49  80 S8        29.98F
FINDLAY        LGT RAIN  58  49  72 CALM      29.99F
TOLEDO EXPRESS LGT RAIN  58  47  66 SW9G18    30.00R
TOLEDO METCALF LGT RAIN  59  50  72 S10       30.01R
LIMA           CLOUDY    56  52  86 E5        29.97F

$$
AND FOR LAKE MICHIGAN COASTAL AND OPEN LAKE BUOY OBSERVATIONS

STATION/POSITION TEMP    WIND        PRES    VSBY  WAVE
                 AIR SEA DIR/SP/G                  HT/PER
                 (F)     (DEG/KT/KT) (MB)    (MI)  (FT/S)
CALUMET HARBOR    49      30/  8/  9 1011.4F
MICHIGAN CITY     59     150/  9/ 10   N/A
BURNS HARBOR      60     130/  6/ 11 1012.2F
SOUTH LAKE BUOY   42 42   30/  6/  8 1014.3          0
4 MI NW BRIDGMAN  52 48  200/  2/  4 1012.8F         1/ 2
MICHIGAN CITY     47 47                N/A           1

$$
&&




USA.gov is the U.S. government's official web portal to all federal, state and local government web resources and services.